Regional Weather Roundup
Issued by NWS

Home | Current Version | Previous Version | Text Only | Print | Product List | Glossary On
Versions: 1 2 3 4 5 6 7 8 9 10 11 12 13 14 15 16 17 18 19 20 21 22 23 24 25 26 27 28 29 30 31 32 33 34 35 36 37 38 39 40 41 42 43 44 45 46 47 48 49 50
000
ASUS43 KTOP 191808
RWRKS

WEATHER ROUNDUP FOR KANSAS
NATIONAL WEATHER SERVICE GOODLAND KS
100 PM CDT FRI SEP 19 2014

NOTE:  "FAIR" INDICATES FEW OR NO CLOUDS BELOW 12,000 FEET WITH NO
SIGNIFICANT WEATHER AND/OR OBSTRUCTIONS TO VISIBILITY.

KSZ001>006-013>018-027>032-041>047-191900-
NORTHWEST KANSAS

CITY           SKY/WX    TMP DP  RH WIND       PRES   REMARKS
GOODLAND       SUNNY     84  57  39 S20G30    29.94F
6HR MIN TEMP:  62; 6HR MAX TEMP:  84;

HAYS           SUNNY     84  64  51 S18G25    29.94F
HILL CITY      SUNNY     87  61  41 S18G26    29.91F
6HR MIN TEMP:  60; 6HR MAX TEMP:  87;

RUSSELL        SUNNY     84  64  50 S18G29    29.93F
6HR MIN TEMP:  63; 6HR MAX TEMP:  84;

$$

KSZ061>065-074>080-084>089-191900-
SOUTHWEST KANSAS

CITY           SKY/WX    TMP DP  RH WIND       PRES   REMARKS
DODGE CITY     SUNNY     84  59  42 S21G31    29.99F
6HR MIN TEMP:  57; 6HR MAX TEMP:  84;

ELKHART          N/A     80  61  52 S17         N/A
GARDEN CITY    SUNNY     83  61  47 S22G28    29.98F
6HR MIN TEMP:  57; 6HR MAX TEMP:  83;

GREAT BEND     SUNNY     86  63  45 SW17      29.95F
LIBERAL        SUNNY     84  61  45 S13G21    30.01F
PRATT          SUNNY     84  61  45 SW14      30.00S
$$

KSZ066>073-081>083-090>101-191900-
SOUTHEAST KANSAS

CITY           SKY/WX    TMP DP  RH WIND       PRES   REMARKS
CHANUTE        CLOUDY    71  68  90 S9        30.03S
6HR MIN TEMP:  64; 6HR MAX TEMP:  71;

COFFEYVILLE    CLOUDY    72  68  87 S7        30.02F FOG
6HR MIN TEMP:  62; 6HR MAX TEMP:  72;

HUTCHINSON     SUNNY     86  65  49 S14       29.96F
6HR MIN TEMP:  62; 6HR MAX TEMP:  87;

MEDICINE LODGE   N/A     85  65  51 S13       29.97F
NEWTON         MOSUNNY   84  66  54 S14       30.00S
PARSONS        CLOUDY    71  69  93 S6        30.04S FOG
6HR MIN TEMP:  63; 6HR MAX TEMP:  72;

WICHITA INTL   MOSUNNY   87  65  47 S9        29.97F
6HR MIN TEMP:  65; 6HR MAX TEMP:  87;

WICHITA JABRA  SUNNY     85  66  53 SW13G18   29.98S
6HR MIN TEMP:  64; 6HR MAX TEMP:  85;

WICHITA MCCONL MOSUNNY   85  67  53 SE12      29.98F
WINFIELD       MOSUNNY   81  70  69 SE10      30.01S
6HR MIN TEMP:  64; 6HR MAX TEMP:  81;

$$

KSZ007>012-019>026-033>040-048>060-102>105-191900-
NORTHEAST KANSAS

CITY           SKY/WX    TMP DP  RH WIND       PRES   REMARKS
CONCORDIA      SUNNY     82  67  60 SW16      29.93F
6HR MIN TEMP:  63; 6HR MAX TEMP:  83;

EMPORIA        CLOUDY    73  68  84 SE12      30.00S
6HR MIN TEMP:  63; 6HR MAX TEMP:  73;

LAWRENCE       CLOUDY    70  65  84 S10       30.01S HAZE
6HR MIN TEMP:  62; 6HR MAX TEMP:  70;

MANHATTAN      SUNNY     85  69  58 S5        29.94
6HR MIN TEMP:  62; 6HR MAX TEMP:  85;

MARYSVILLE     SUNNY     82  70  65 SW12      29.93F
OLATHE IND     CLOUDY    70  66  87 S8        30.02F FOG
6HR MIN TEMP:  62; 6HR MAX TEMP:  70;

OLATHE EXE     CLOUDY    70  66  87 S9        30.02S FOG
SALINA         SUNNY     85  69  58 S13G20    29.94F
6HR MIN TEMP:  63; 6HR MAX TEMP:  85;

TOPEKA BILLARD CLOUDY    73  67  81 S9        29.99S
6HR MIN TEMP:  64; 6HR MAX TEMP:  73;

TOPEKA FORBES  CLOUDY    73  67  81 S10       29.99F
6HR MIN TEMP:  63; 6HR MAX TEMP:  73;

$$



USA.gov is the U.S. government's official web portal to all federal, state and local government web resources and services.